Total_Precipitation_Accumulation
2.01 1.93 2.78 2.84 2.41 1.92 1.78 1.78 1.61 1.46 1.45 1.40 1.20 1.09 1.04 0.99 0.84 0.73 0.63 0.56 0.59 0.60 0.62 0.62 0.63 0.69 0.76 0.74 0.66 0.82 0.87 0.77 0.69 0.68 0.83 0.97 1.05 1.20 1.35 1.54 1.90 2.19 1.89
1.64 1.63 2.62 2.79 2.38 1.90 1.64 1.61 1.59 1.45 1.45 1.34 1.27 1.13 1.09 0.98 0.85 0.73 0.60 0.56 0.59 0.60 0.56 0.60 0.67 0.67 0.73 0.79 0.75 0.84 0.82 0.67 0.60 0.67 0.98 1.24 1.20 1.21 1.32 1.42 1.80 2.09 1.84
1.32 1.39 2.05 2.59 2.34 1.89 1.61 1.52 1.54 1.46 1.50 1.43 1.36 1.20 1.11 0.99 0.89 0.76 0.66 0.68 0.68 0.64 0.58 0.60 0.71 0.73 0.73 0.88 0.82 0.79 0.75 0.66 0.65 0.87 1.37 2.08 1.67 1.24 1.28 1.35 1.58 1.52 1.56
1.22 1.31 1.55 2.13 2.02 1.65 1.45 1.45 1.52 1.46 1.55 1.49 1.29 1.14 1.02 1.01 0.98 0.88 0.82 0.90 0.73 0.64 0.61 0.64 0.74 0.80 0.77 0.87 0.83 0.77 0.73 0.77 0.88 1.05 1.50 2.01 2.05 1.50 1.42 1.53 1.53 1.45 1.53
1.22 1.28 1.67 2.09 1.91 1.65 1.46 1.51 1.57 1.53 1.54 1.40 1.15 0.97 0.96 1.04 1.05 1.03 1.01 0.99 0.77 0.67 0.61 0.61 0.70 0.76 0.78 0.85 0.81 0.75 0.71 0.82 1.06 1.17 1.47 1.82 2.19 1.83 1.48 1.54 1.56 1.51 1.64
1.21 1.24 1.54 1.95 1.84 1.64 1.47 1.53 1.57 1.60 1.59 1.50 1.22 1.01 1.00 1.05 1.04 1.01 1.06 0.92 0.83 0.76 0.64 0.64 0.69 0.77 0.77 0.81 0.83 0.78 0.80 0.90 1.00 1.22 1.51 1.88 2.07 1.76 1.43 1.49 1.56 1.68 1.69
1.09 1.09 1.25 1.67 1.71 1.57 1.48 1.63 1.70 1.70 1.72 1.67 1.38 1.17 1.08 1.04 1.02 1.04 1.09 0.94 0.88 0.84 0.78 0.79 0.80 0.80 0.78 0.83 0.81 0.78 0.77 0.78 0.84 1.09 1.34 1.85 1.87 1.60 1.42 1.44 1.46 1.53 1.61
1.21 1.10 1.06 1.43 1.53 1.47 1.47 1.58 1.65 1.65 1.62 1.58 1.36 1.18 1.10 1.04 1.00 1.09 1.16 1.03 0.95 0.86 0.81 0.83 0.86 0.89 0.88 0.88 0.86 0.83 0.78 0.67 0.68 0.88 1.16 1.59 1.73 1.63 1.45 1.47 1.59 1.52 1.55
1.36 1.29 1.16 1.21 1.32 1.52 1.60 1.58 1.51 1.42 1.41 1.37 1.22 1.14 1.06 1.01 0.96 1.01 1.07 1.00 0.99 0.97 0.93 0.88 0.93 0.98 0.92 0.93 0.93 0.87 0.82 0.69 0.74 0.88 0.91 1.40 1.64 1.62 1.42 1.41 1.58 1.64 1.62
1.57 1.42 1.21 1.13 1.19 1.26 1.36 1.46 1.51 1.46 1.39 1.33 1.18 1.06 1.01 0.96 0.86 0.90 0.86 0.85 0.93 1.05 1.13 1.08 1.06 1.03 1.02 0.98 0.94 0.87 0.81 0.66 0.74 0.78 0.99 1.23 1.58 1.68 1.51 1.31 1.29 1.33 1.39
1.30 1.20 1.24 1.23 1.25 1.27 1.22 1.26 1.46 1.50 1.45 1.27 1.15 1.07 0.98 0.78 0.69 0.74 0.73 0.88 1.02 1.21 1.29 1.30 1.25 1.20 1.09 0.95 0.91 0.84 0.70 0.65 0.76 0.84 1.08 1.27 1.62 1.71 1.53 1.26 1.18 1.08 1.13
0.93 0.93 1.00 1.09 1.24 1.24 1.11 1.33 1.54 1.38 1.22 0.98 0.97 0.87 0.87 0.81 0.77 0.64 0.70 0.95 1.12 1.21 1.23 1.34 1.42 1.25 0.98 0.72 0.70 0.66 0.56 0.56 0.61 0.71 0.96 1.40 1.67 1.73 1.58 1.34 1.15 1.02 1.04
0.80 0.79 0.78 0.87 1.00 1.08 1.20 1.43 1.69 1.73 1.50 1.26 1.04 0.95 0.93 0.81 0.72 0.67 0.68 0.77 0.88 0.96 0.90 0.96 0.99 0.85 0.75 0.68 0.67 0.55 0.52 0.53 0.57 0.67 1.03 1.44 1.69 1.75 1.60 1.42 1.28 1.17 1.12
0.66 0.75 0.62 0.57 0.76 0.92 1.02 1.13 1.37 1.44 1.36 1.19 1.00 0.90 0.95 0.90 0.79 0.76 0.75 0.81 0.83 0.84 0.94 0.95 0.99 0.93 0.76 0.67 0.65 0.66 0.62 0.58 0.63 0.79 1.06 1.35 1.69 1.85 1.75 1.61 1.49 1.34 1.26
0.66 0.72 0.66 0.57 0.58 0.67 0.73 0.81 0.94 1.11 1.19 1.16 1.08 0.89 0.87 0.87 0.83 0.87 0.82 0.85 0.77 0.76 0.87 0.94 0.96 0.97 0.87 0.74 0.69 0.70 0.75 0.69 0.66 0.75 0.96 1.23 1.64 1.97 2.06 1.87 1.67 1.56 1.48
0.58 0.70 0.71 0.62 0.60 0.63 0.63 0.63 0.64 0.79 0.93 1.05 1.02 0.90 0.91 0.92 0.88 0.93 0.89 0.89 0.87 0.81 0.85 1.04 0.99 1.02 0.99 0.91 0.76 0.74 0.77 0.73 0.69 0.72 0.84 1.10 1.31 1.54 1.87 2.10 1.93 1.74 1.56
0.54 0.60 0.67 0.66 0.69 0.72 0.70 0.69 0.58 0.62 0.69 0.83 0.94 0.92 0.96 0.91 0.83 0.87 0.89 0.87 0.87 0.89 0.91 0.99 1.00 1.05 0.95 0.90 0.85 0.80 0.77 0.73 0.64 0.71 0.73 0.84 0.87 1.06 1.38 1.71 1.90 1.86 1.78
0.62 0.65 0.70 0.73 0.78 0.80 0.81 0.81 0.75 0.79 0.82 0.85 0.98 0.95 0.91 0.93 0.90 0.90 0.95 0.96 1.00 1.05 1.04 1.06 1.11 1.11 1.06 1.04 1.02 1.00 0.83 0.82 0.72 0.72 0.72 0.74 0.82 0.79 0.94 1.11 1.37 1.59 1.79
0.57 0.59 0.63 0.73 0.76 0.78 0.82 0.90 1.02 1.06 1.06 1.03 1.07 1.03 0.93 0.91 0.95 1.06 1.10 1.16 1.14 1.17 1.20 1.17 1.20 1.11 1.13 1.15 1.06 1.04 0.94 0.92 0.86 0.73 0.79 0.82 0.84 0.79 0.82 0.73 0.79 0.91 1.19
0.46 0.49 0.55 0.63 0.80 0.92 0.96 0.96 1.10 1.16 1.23 1.31 1.36 1.24 1.11 1.13 1.26 1.41 1.49 1.43 1.43 1.45 1.45 1.41 1.48 1.37 1.21 1.23 1.14 1.07 0.95 0.86 0.91 0.89 0.87 0.86 0.91 0.87 0.81 0.71 0.67 0.57 0.67
0.31 0.37 0.44 0.50 0.68 0.81 0.87 0.97 1.15 1.32 1.48 1.63 1.74 1.64 1.50 1.46 1.63 1.76 1.70 1.79 1.82 1.70 1.71 1.77 1.83 1.78 1.54 1.41 1.48 1.37 1.08 0.84 0.89 0.88 0.85 0.89 0.95 1.05 1.08 0.95 0.80 0.72 0.67
0.20 0.24 0.30 0.38 0.48 0.61 0.77 1.00 1.19 1.48 1.57 1.65 1.78 1.82 1.76 1.70 1.86 1.90 1.99 2.09 2.13 2.12 2.08 1.97 2.06 2.17 1.91 1.69 1.81 2.09 1.68 1.27 0.91 0.72 0.81 0.86 0.96 1.19 1.26 1.08 0.89 0.81 0.79
0.14 0.16 0.23 0.35 0.48 0.69 0.93 1.25 1.53 1.76 1.83 1.88 1.84 1.89 1.98 2.02 2.09 2.12 2.18 2.26 2.29 2.14 2.14 2.23 2.34 2.68 2.50 2.15 1.94 2.18 1.99 1.67 1.35 0.93 0.85 0.90 0.99 1.16 1.28 1.30 1.18 1.10 1.01
0.14 0.19 0.30 0.48 0.67 0.94 1.27 1.62 1.86 2.09 2.19 2.03 2.00 2.03 2.04 2.00 2.03 2.15 2.16 2.16 2.15 2.10 2.17 2.23 2.27 2.66 2.86 2.58 2.24 1.87 1.65 1.62 1.69 1.39 1.01 0.96 1.05 1.06 1.18 1.26 1.21 1.26 1.25
0.28 0.35 0.51 0.76 1.05 1.33 1.56 1.75 1.95 2.08 2.10 2.08 2.04 2.03 1.96 1.93 1.90 1.93 1.95 2.04 2.08 2.13 2.18 2.35 2.47 2.71 2.75 2.74 2.55 2.35 2.12 1.82 1.48 1.52 1.45 1.20 1.16 1.07 1.16 1.29 1.33 1.40 1.43
0.44 0.58 0.76 0.93 1.22 1.41 1.52 1.63 1.82 1.97 2.02 2.03 2.01 2.01 2.01 1.98 1.87 1.81 1.78 1.85 1.98 2.14 2.20 2.29 2.44 2.67 2.79 2.87 2.79 2.52 2.42 2.25 1.95 1.82 1.57 1.42 1.42 1.22 1.19 1.23 1.28 1.40 1.55